Change the Weather History Date:

Friday, April 5, 2013

  Actual Average Record
Temperature  
Mean Temperature 64 °F -  
Max Temperature 77 °F 65 °F 86 °F (2007)
Min Temperature 52 °F 40 °F 34 °F (1998)
Growing Degree Days 14 (Base 50)    
Moisture  
Dew Point 27 °F    
Average Humidity 25    
Maximum Humidity 43    
Minimum Humidity 6    
Precipitation  
Precipitation 0.00 in - - ()
Sea Level Pressure  
Sea Level Pressure 29.84 in    
Wind  
Wind Speed 8 mph (WSW)    
Max Wind Speed 15 mph    
Max Gust Speed 25 mph    
Visibility 10 miles    
Events      
Averages and records for this station are not official NWS values.
T = Trace of Precipitation, MM = Missing Value Source: NWS Daily Summary

Daily Weather History Graph

Daily Weather History Graph

Search for Another Location

Airport or City:

Trip Planner

Search our weather history database for the weather conditions in past years. The results will help you decide how hot, cold, wet, or windy it might be!

Date:

Astronomy

Apr. 05, 2013 Rise Set
Actual Time 6:23 AM PDT 7:10 PM PDT
Civil Twilight 5:57 AM PDT 7:36 PM PDT
Nautical Twilight 5:26 AM PDT 8:07 PM PDT
Astronomical Twilight 4:54 AM PDT 8:39 PM PDT
Moon 3:26 AM PDT (4/5) 2:45 PM PDT (4/5)
Length of Visible Light 13h 38m
Length of Day
12h 46m
Waning Crescent, 22% of the Moon is Illuminated
Apr 5
Waning Crescent
Apr 10
New
Apr 18
First Quarter
Apr 25
Full
May 2
Last Quarter

Hourly Weather History & Observations

Time (PDT) Temp. Dew Point Humidity Pressure Visibility Wind Dir Wind Speed Gust Speed Precip Events Conditions
12:52 AM 63.0 °F 35.1 °F 35% 29.81 in 10.0 mi SW 8.1 mph 18.4 mph N/A   Clear
1:52 AM 62.1 °F 32.0 °F 32% 29.79 in 10.0 mi SSW 15.0 mph 25.3 mph N/A   Clear
2:52 AM 60.1 °F 34.0 °F 38% 29.81 in 10.0 mi WSW 13.8 mph - N/A   Clear
3:52 AM 57.9 °F 34.0 °F 41% 29.81 in 10.0 mi WSW 9.2 mph - N/A   Clear
4:52 AM 57.0 °F 33.1 °F 40% 29.83 in 10.0 mi NW 5.8 mph - N/A   Clear
5:52 AM 55.0 °F 33.1 °F 43% 29.84 in 10.0 mi North 3.5 mph - N/A   Clear
7:52 AM 57.9 °F 34.0 °F 41% 29.90 in 10.0 mi West 3.5 mph - N/A   Clear
8:52 AM 61.0 °F 36.0 °F 39% 29.91 in 10.0 mi SSW 10.4 mph - N/A   Clear
9:52 AM 64.0 °F 35.1 °F 34% 29.91 in 10.0 mi WSW 12.7 mph - N/A   Clear
10:52 AM 66.0 °F 32.0 °F 28% 29.91 in 10.0 mi Calm Calm - N/A   Clear
11:52 AM 70.0 °F 30.9 °F 24% 29.90 in 10.0 mi South 8.1 mph - N/A   Clear
12:52 PM 73.0 °F 30.0 °F 20% 29.87 in 10.0 mi Variable 6.9 mph - N/A   Clear
1:52 PM 73.0 °F 28.9 °F 20% 29.84 in 10.0 mi Calm Calm - N/A   Clear
2:52 PM 73.9 °F 23.0 °F 15% 29.81 in 10.0 mi West 6.9 mph - N/A   Clear
3:52 PM 75.0 °F 19.9 °F 13% 29.80 in 10.0 mi WSW 8.1 mph - N/A   Clear
4:52 PM 73.9 °F 19.0 °F 13% 29.80 in 10.0 mi WSW 15.0 mph 21.9 mph N/A   Clear
5:52 PM 73.0 °F 18.0 °F 12% 29.81 in 10.0 mi WSW 12.7 mph - N/A   Clear
6:52 PM 71.1 °F 19.0 °F 14% 29.81 in 10.0 mi WSW 8.1 mph - N/A   Clear
7:52 PM 68.0 °F 19.9 °F 16% 29.81 in 10.0 mi WSW 3.5 mph - N/A   Clear
8:52 PM 63.0 °F 19.9 °F 19% 29.83 in 10.0 mi NNE 3.5 mph - N/A   Clear
9:52 PM 61.0 °F 21.0 °F 21% 29.84 in 10.0 mi NNE 6.9 mph - N/A   Clear
10:52 PM 57.9 °F 21.9 °F 25% 29.83 in 10.0 mi SE 3.5 mph - N/A   Clear
11:52 PM 54.0 °F 21.9 °F 29% 29.84 in 10.0 mi East 3.5 mph - N/A   Clear